This is the latest recevied weather packets stored in our database for station/object AI4QX-5. If no packets are shown the sender has not sent any weather packets the latest 10 day(s).
| Time | Temp. | Humidity | Pressure | Rain* | Wind** | Luminosity | Snow |
|---|---|---|---|---|---|---|---|
| 1777770600 | 26.67° C | 41% | 1008.4 hPa | 0 mm | - | - | - |
| 1777770000 | 26.67° C | 41% | 1009.2 hPa | 0 mm | - | - | - |
| 1777769401 | 26.67° C | 40% | 1009.1 hPa | 0 mm | - | - | - |
| 1777768800 | 26.67° C | 40% | 1009.3 hPa | 0 mm | - | - | - |
| 1777768200 | 26.67° C | 40% | 1009.2 hPa | 0 mm | - | - | - |
| 1777767600 | 26.67° C | 41% | 1008.3 hPa | 0 mm | - | - | - |
| 1777767000 | 26.67° C | 41% | 1008.7 hPa | 0 mm | - | - | - |
| 1777766400 | 26.67° C | 40% | 1009.6 hPa | 0 mm | - | - | - |
| 1777765801 | 26.67° C | 40% | 1009.9 hPa | 0 mm | - | - | - |
| 1777765200 | 26.67° C | 40% | 1009.6 hPa | 0 mm | - | - | - |
| 1777764600 | 26.67° C | 40% | 1009.9 hPa | 0 mm | - | - | - |
| 1777764000 | 26.67° C | 39% | 1010 hPa | 0 mm | - | - | - |
| 1777763400 | 26.67° C | 39% | 1009.5 hPa | 0 mm | - | - | - |
| 1777762800 | 26.67° C | 39% | 1009.5 hPa | 0 mm | - | - | - |
| 1777762200 | 26.67° C | 39% | 1009.5 hPa | 0 mm | - | - | - |
| 1777761600 | 26.67° C | 38% | 1009.3 hPa | 0 mm | - | - | - |
| 1777761000 | 26.67° C | 39% | 1008.9 hPa | 0 mm | - | - | - |
| 1777760400 | 26.67° C | 41% | 1008.8 hPa | 0 mm | - | - | - |
| 1777759800 | 27.22° C | 39% | 1009 hPa | 0 mm | - | - | - |
| 1777759200 | 26.67° C | 39% | 1008.9 hPa | 0 mm | - | - | - |
| 1777758600 | 26.67° C | 41% | 1009 hPa | 0 mm | - | - | - |
| 1777758000 | 27.22° C | 38% | 1009 hPa | 0 mm | - | - | - |
| 1777757400 | 27.22° C | 40% | 1009.2 hPa | 0 mm | - | - | - |
| 1777756800 | 27.22° C | 41% | 1009.3 hPa | 0 mm | - | - | - |
| 1777756200 | 27.78° C | 39% | 1009 hPa | 0 mm | - | - | - |
* Rain latest hour (hover to see other rain measurements)
** Current wind speed in m/s (hover to see current wind gust speed)